Wind_Speed
15 14 12 9 7 6 5 5 5 8 8 11 16 21 23 23 22 29 27 33 42 35 37 38 33 38 40 39 37 36 35 38 40 42 41 35 35 38 36 39 40 42 38
16 16 15 14 12 11 9 8 10 11 13 13 14 16 17 21 26 29 31 32 38 45 41 43 42 44 44 43 41 41 42 42 43 45 42 39 34 37 37 33 40 35 35
18 18 18 17 16 14 13 13 13 13 14 16 18 19 20 20 22 23 27 30 32 35 38 39 36 38 38 39 40 42 41 41 45 46 46 49 44 38 36 29 26 29 33
20 19 19 20 20 19 19 19 18 18 19 19 19 20 21 22 23 24 25 25 27 28 31 32 31 34 35 36 38 39 40 41 44 50 53 53 48 41 35 31 38 41 35
24 21 20 22 23 24 25 24 25 25 25 24 25 25 25 26 27 27 28 29 30 31 33 34 35 36 33 37 40 39 39 40 44 47 52 45 44 45 39 40 44 47 44
16 20 29 28 28 29 31 32 32 32 33 32 31 29 31 31 29 29 30 31 32 34 34 35 36 35 39 35 36 36 40 40 48 42 45 48 39 40 45 48 49 51 53
19 17 19 25 31 31 29 28 28 29 32 33 34 36 33 33 32 33 33 35 36 36 36 36 38 38 39 40 40 39 41 42 45 46 46 47 46 46 46 53 52 54 51
28 24 22 23 25 27 33 30 29 29 30 32 32 34 35 32 32 33 35 39 40 40 41 41 42 42 42 42 43 46 45 48 51 51 49 55 51 55 53 56 59 56 57
27 31 30 29 29 28 30 30 33 35 33 31 32 34 35 33 35 35 36 40 43 44 46 45 46 47 46 46 47 50 53 54 56 52 52 54 62 54 57 56 59 62 58
28 30 33 35 34 34 32 28 31 41 38 36 35 35 35 37 35 36 38 42 44 45 47 48 47 48 51 51 52 52 54 55 54 51 55 56 57 59 59 57 61 55 53
27 26 33 38 38 38 35 34 35 34 35 38 41 40 46 39 43 41 38 42 43 46 49 49 49 46 49 48 44 45 50 54 56 59 64 61 52 54 52 47 39 36 37
24 26 31 33 35 40 41 38 37 35 31 31 32 41 48 48 52 51 48 47 47 48 51 53 54 57 52 49 47 47 59 62 60 53 59 48 45 42 36 34 32 32 33
25 26 30 31 35 42 44 44 47 47 46 41 43 40 45 45 49 47 49 50 47 48 57 58 61 59 64 61 59 59 59 64 53 50 39 50 32 29 30 31 32 35 38
27 28 30 29 33 36 43 44 43 44 42 41 46 51 51 53 48 48 46 55 66 60 62 60 61 62 63 57 56 53 42 29 29 25 26 28 27 30 33 34 37 40 42
32 32 30 27 30 31 37 37 40 43 41 48 51 54 61 61 47 55 53 57 58 62 60 66 55 47 37 37 27 22 20 19 19 19 22 25 29 32 34 37 41 43 44
27 27 28 27 23 23 30 27 29 29 40 47 43 50 50 56 48 47 47 47 49 44 42 33 26 23 22 17 12 12 14 17 20 22 26 28 31 34 37 40 42 43 45
27 26 25 25 23 26 22 20 22 32 31 29 22 20 25 30 27 22 22 18 12 14 12 11 11 11 11 13 15 17 20 23 26 29 31 32 34 35 37 39 40 41 42
27 27 26 24 24 25 21 25 23 19 20 16 17 14 12 12 13 15 10 7 6 7 6 9 9 12 15 17 19 22 25 27 30 31 32 32 33 34 35 37 38 39 40
23 21 24 25 22 23 23 20 17 15 14 13 10 9 8 5 4 4 4 6 7 9 11 12 13 16 17 20 22 24 26 27 28 29 30 30 31 32 33 35 36 37 38
23 22 20 20 18 16 15 13 10 9 9 8 7 5 4 3 3 5 7 10 11 13 14 16 18 20 22 23 24 25 25 25 26 28 29 30 31 32 32 33 34 34 33
11 11 11 10 9 9 8 8 8 9 8 8 8 8 8 7 8 9 10 12 14 16 18 19 20 20 20 21 22 22 24 25 27 28 29 29 30 30 31 31 31 30 30
7 4 4 4 4 5 6 6 6 6 7 7 8 9 11 12 14 16 17 18 18 17 16 17 18 18 19 20 22 23 24 25 26 27 28 28 29 29 28 28 28 27 27
4 3 3 3 3 3 4 6 8 9 11 12 13 14 15 16 16 16 17 18 18 17 17 17 19 20 21 23 24 25 25 25 25 26 26 26 25 25 24 23 23 23 22
5 6 7 8 8 9 10 12 13 14 15 16 17 17 17 17 17 17 16 16 18 18 19 20 21 22 22 23 23 23 24 24 24 23 23 22 23 22 21 20 19 19 19
8 9 11 11 12 13 14 15 15 16 17 17 18 18 17 16 18 18 18 18 19 19 20 20 21 21 22 23 23 24 23 23 22 21 21 20 19 18 18 17 17 18 19
11 12 12 13 13 14 14 15 15 16 16 16 17 18 17 18 19 19 20 20 20 20 20 20 21 21 21 21 21 20 19 19 19 18 18 18 18 17 16 17 18 18 17
Wind_Direction
254 251 252 249 239 232 196 186 199 207 219 226 214 210 207 218 222 228 229 232 229 240 247 251 255 251 245 255 263 265 265 269 278 278 281 282 287 297 292 288 282 285 262
252 252 254 258 256 256 254 230 211 205 208 215 220 229 226 224 222 233 228 237 241 240 245 247 245 250 250 253 257 260 264 267 274 279 280 282 283 287 301 285 291 280 256
249 248 251 257 263 261 259 257 250 243 232 224 220 222 225 226 230 230 233 237 239 242 243 245 248 248 250 253 256 260 264 269 272 276 281 280 280 276 286 295 281 290 259
250 252 250 255 257 260 261 261 262 260 256 256 254 242 238 237 235 234 235 234 237 241 246 249 251 252 252 253 258 262 266 267 272 275 276 278 281 272 276 280 283 283 271
253 262 260 258 260 260 260 263 267 267 267 263 259 256 252 249 249 246 244 243 242 242 243 245 249 255 264 257 263 265 268 272 270 276 286 284 284 278 277 282 281 287 285
294 273 263 265 268 269 270 270 270 270 269 267 266 264 261 260 262 258 253 252 252 252 254 256 258 259 257 262 264 266 264 264 276 269 282 284 285 268 272 280 280 287 280
265 275 282 271 264 263 264 267 269 270 269 268 266 266 265 262 263 264 262 257 256 257 258 256 256 256 257 258 261 263 265 267 273 282 279 282 277 273 272 279 282 285 279
261 264 276 286 272 270 269 266 266 265 268 269 267 267 267 266 264 262 262 262 260 259 258 258 258 259 260 261 261 264 264 266 267 271 277 280 277 276 273 271 274 275 273
252 262 264 265 264 269 275 268 267 269 268 271 272 270 267 263 263 265 262 259 261 263 261 261 261 261 263 263 265 265 264 266 271 270 273 271 273 275 277 277 272 272 269
257 258 257 266 273 273 275 281 270 265 264 266 266 273 277 271 266 264 261 261 260 262 264 264 264 264 263 260 262 263 263 265 272 274 273 273 276 275 271 275 276 275 273
266 263 260 264 266 268 272 272 275 268 267 262 266 272 276 274 269 268 269 267 268 268 266 265 265 264 261 262 262 264 263 265 270 270 270 271 276 277 279 277 276 271 267
289 283 273 266 261 268 269 270 272 276 281 278 281 278 274 266 260 265 260 265 265 267 270 270 269 263 260 261 261 262 257 256 262 271 272 269 271 273 275 271 267 268 271
305 298 287 284 274 265 267 268 267 270 276 280 279 282 283 269 265 265 266 268 270 267 258 262 261 262 257 253 250 253 257 256 255 254 258 271 270 271 273 272 278 281 284
309 311 305 295 278 274 263 259 257 263 265 270 273 274 266 264 257 261 265 269 268 267 262 258 251 248 252 253 248 249 250 252 253 265 267 270 273 275 275 280 286 288 290
297 301 300 298 306 283 274 263 255 264 258 264 264 269 265 256 258 250 256 263 265 260 252 253 252 248 245 251 252 247 254 259 265 269 270 272 276 283 289 292 292 294 296
292 294 299 300 302 315 292 272 289 306 261 256 256 261 266 267 263 260 256 253 255 256 258 254 254 253 257 257 259 267 265 263 273 282 287 290 293 294 296 297 296 294 293
288 293 298 304 306 308 308 306 304 292 306 310 298 291 283 285 281 276 273 274 258 252 257 252 250 256 258 258 266 274 281 287 293 295 298 299 298 296 294 294 295 296 296
288 295 298 299 302 306 302 301 304 301 308 307 292 299 294 294 287 284 281 253 253 267 276 273 274 277 283 286 290 294 297 300 300 300 298 297 299 300 302 302 302 303 303
288 291 296 295 294 297 299 300 300 300 303 305 297 292 301 316 297 284 283 288 291 283 277 281 288 292 294 295 297 301 302 301 300 301 303 305 305 306 308 309 309 309 309
287 290 291 288 286 283 282 288 295 303 310 313 317 318 310 293 277 281 278 281 284 287 289 292 291 294 301 305 304 302 302 304 306 308 310 312 313 313 314 315 315 316 317
270 276 282 285 289 293 296 298 301 305 307 311 312 310 306 306 301 294 289 287 285 286 293 298 301 299 301 305 307 309 311 311 312 313 315 317 318 319 320 320 320 321 321
302 301 307 311 311 310 312 312 311 309 308 307 308 306 303 299 298 299 303 303 304 305 307 306 306 309 310 311 313 314 314 317 319 318 318 318 319 320 320 320 320 319 319
304 312 324 333 325 318 310 305 302 301 300 298 298 297 297 299 301 303 304 303 303 306 307 308 311 313 317 317 315 314 315 314 314 314 315 316 316 318 319 319 318 318 319
288 292 296 298 303 306 303 300 298 298 298 298 299 300 301 302 303 303 304 305 308 311 312 313 312 313 313 310 311 313 313 315 315 314 313 315 316 316 315 316 319 322 324
312 318 311 303 299 299 298 299 299 299 300 301 301 300 301 302 300 301 301 301 301 302 304 305 307 309 311 312 314 313 312 311 311 310 309 309 310 314 317 318 322 323 319
301 301 302 301 299 298 298 298 297 296 295 295 295 295 297 295 295 297 296 297 297 299 301 303 304 305 305 304 305 307 307 305 303 305 308 311 314 315 316 317 315 313 316
Height
3043 3045 3047 3050 3052 3053 3053 3054 3054 3055 3056 3058 3060 3062 3065 3069 3071 3074 3077 3080 3082 3087 3088 3091 3091 3095 3097 3099 3101 3102 3101 3102 3099 3102 3101 3102 3098 3096 3093 3092 3089 3089 3089
3039 3041 3043 3045 3048 3050 3052 3053 3054 3055 3056 3057 3058 3059 3061 3062 3065 3067 3069 3072 3074 3077 3080 3082 3084 3086 3088 3090 3092 3092 3093 3095 3093 3091 3092 3091 3090 3087 3084 3081 3080 3080 3080
3035 3036 3038 3040 3042 3045 3047 3049 3051 3052 3053 3054 3055 3056 3058 3060 3060 3061 3062 3065 3066 3068 3070 3072 3075 3077 3079 3081 3082 3083 3085 3087 3085 3082 3080 3079 3080 3079 3075 3071 3071 3070 3071
3029 3032 3033 3035 3037 3039 3041 3043 3045 3046 3047 3049 3049 3050 3052 3053 3054 3056 3058 3060 3061 3062 3064 3066 3067 3068 3070 3072 3073 3075 3077 3076 3075 3072 3069 3067 3067 3067 3064 3063 3061 3062 3061
3024 3026 3028 3030 3032 3033 3034 3036 3038 3039 3041 3042 3042 3044 3045 3046 3048 3049 3051 3053 3055 3056 3057 3058 3060 3061 3064 3064 3064 3066 3066 3066 3064 3061 3057 3054 3054 3053 3054 3052 3051 3050 3046
3020 3020 3022 3024 3025 3026 3027 3029 3030 3031 3032 3033 3034 3036 3037 3038 3040 3042 3043 3044 3045 3047 3049 3050 3051 3053 3053 3054 3054 3054 3054 3053 3049 3048 3046 3041 3040 3041 3041 3039 3039 3036 3034
3014 3015 3016 3015 3017 3018 3019 3020 3021 3021 3022 3023 3024 3025 3027 3029 3031 3033 3034 3034 3035 3036 3038 3039 3040 3041 3042 3043 3043 3042 3040 3038 3038 3036 3034 3031 3028 3026 3028 3026 3023 3022 3019
3006 3008 3009 3008 3008 3009 3009 3011 3012 3013 3014 3014 3014 3015 3016 3019 3020 3022 3024 3023 3023 3024 3025 3026 3025 3027 3029 3030 3030 3027 3025 3024 3023 3023 3020 3017 3015 3014 3012 3011 3009 3008 3005
2999 3000 2999 2998 2999 3000 3000 3002 3003 3003 3004 3006 3006 3006 3006 3009 3010 3011 3012 3011 3011 3011 3011 3012 3012 3012 3014 3016 3016 3015 3014 3010 3009 3008 3008 3004 2999 2998 2997 2996 2995 2992 2987
2994 2993 2992 2992 2992 2994 2994 2993 2992 2994 2994 2995 2996 2996 2997 2998 3000 3002 3002 3000 2998 2999 2998 2998 2999 3000 3001 3003 3003 3001 3000 2996 2993 2992 2990 2988 2988 2985 2982 2980 2980 2978 2975
2986 2986 2985 2984 2983 2984 2984 2985 2985 2983 2984 2984 2984 2984 2987 2987 2987 2988 2989 2990 2989 2989 2987 2986 2986 2987 2988 2988 2988 2987 2985 2983 2979 2976 2973 2972 2971 2971 2969 2967 2966 2965 2964
2977 2976 2976 2976 2974 2974 2976 2976 2976 2974 2974 2974 2973 2974 2973 2972 2974 2976 2976 2977 2976 2976 2975 2975 2974 2974 2974 2973 2972 2970 2967 2964 2959 2959 2958 2956 2955 2954 2955 2956 2957 2955 2954
2970 2967 2966 2965 2963 2962 2964 2964 2964 2965 2964 2963 2962 2961 2961 2959 2958 2959 2960 2962 2963 2963 2960 2958 2955 2954 2954 2952 2951 2950 2952 2947 2943 2940 2938 2942 2944 2944 2945 2948 2948 2945 2944
2962 2960 2958 2956 2953 2952 2951 2952 2953 2953 2952 2951 2949 2948 2947 2945 2942 2942 2942 2943 2945 2943 2941 2939 2933 2933 2935 2932 2923 2928 2927 2932 2925 2926 2929 2929 2934 2935 2936 2936 2936 2933 2931
2955 2953 2951 2948 2945 2943 2942 2940 2939 2941 2936 2937 2936 2934 2933 2924 2922 2927 2927 2926 2925 2927 2920 2917 2918 2919 2919 2915 2917 2919 2918 2921 2927 2922 2922 2922 2925 2925 2923 2923 2921 2918 2915
2949 2947 2944 2942 2939 2937 2935 2930 2930 2928 2925 2925 2920 2919 2916 2913 2915 2906 2903 2909 2907 2910 2909 2909 2909 2917 2913 2912 2918 2916 2918 2921 2921 2917 2917 2916 2915 2914 2913 2910 2908 2905 2901
2940 2939 2937 2935 2932 2930 2927 2924 2922 2919 2919 2917 2913 2909 2906 2906 2905 2906 2905 2902 2905 2906 2906 2904 2905 2911 2910 2911 2912 2913 2914 2913 2912 2910 2909 2907 2905 2904 2901 2899 2896 2893 2888
2933 2931 2929 2927 2925 2922 2920 2919 2916 2913 2914 2910 2912 2904 2905 2901 2902 2902 2902 2903 2902 2906 2901 2910 2907 2910 2910 2908 2907 2906 2906 2905 2904 2901 2900 2897 2894 2891 2889 2886 2883 2879 2875
2925 2924 2922 2920 2918 2916 2914 2912 2910 2909 2906 2904 2904 2902 2904 2900 2900 2900 2901 2901 2900 2901 2904 2906 2904 2904 2903 2902 2900 2898 2897 2896 2894 2892 2888 2883 2882 2879 2876 2873 2871 2867 2862
2918 2916 2914 2913 2911 2909 2908 2907 2906 2905 2903 2901 2901 2900 2900 2899 2900 2898 2898 2898 2898 2899 2900 2899 2898 2897 2895 2894 2892 2890 2889 2887 2883 2881 2878 2873 2871 2869 2866 2862 2859 2856 2852
2910 2910 2909 2907 2906 2905 2904 2904 2903 2903 2902 2901 2899 2898 2898 2897 2896 2896 2895 2895 2895 2895 2893 2892 2891 2890 2888 2885 2884 2882 2880 2877 2874 2871 2868 2865 2862 2860 2856 2854 2850 2847 2844
2909 2907 2906 2904 2904 2902 2902 2901 2901 2900 2900 2899 2898 2896 2896 2894 2892 2891 2890 2889 2889 2888 2887 2886 2884 2882 2879 2877 2876 2874 2872 2868 2865 2862 2861 2858 2856 2854 2850 2847 2845 2842 2838
2906 2906 2905 2903 2902 2901 2900 2900 2899 2898 2897 2896 2895 2894 2893 2891 2890 2888 2886 2885 2884 2883 2880 2879 2877 2874 2871 2869 2869 2867 2864 2862 2859 2857 2854 2852 2851 2848 2845 2841 2840 2838 2834
2904 2903 2903 2902 2900 2899 2899 2898 2897 2895 2894 2892 2891 2890 2888 2887 2885 2883 2882 2881 2878 2876 2874 2871 2870 2868 2866 2864 2863 2861 2857 2855 2853 2852 2851 2847 2845 2843 2842 2838 2835 2833 2830
2902 2901 2900 2899 2898 2896 2895 2894 2892 2890 2889 2887 2886 2884 2884 2882 2880 2878 2877 2876 2874 2872 2869 2867 2864 2862 2860 2858 2856 2854 2851 2850 2848 2847 2845 2843 2841 2839 2837 2834 2831 2829 2826
2900 2898 2896 2895 2894 2893 2891 2890 2888 2886 2885 2884 2882 2880 2879 2877 2875 2874 2872 2870 2869 2866 2864 2861 2858 2857 2856 2854 2852 2849 2847 2846 2845 2842 2840 2837 2836 2834 2832 2830 2827 2825 2822